Home   Weather   Basel   Past weeks
Flag for Switzerland

Past Weather in Basel, Basel-Stadt, Switzerland — Yesterday and Last 2 Weeks

Now
47 °F

Overcast.


Feels Like: 47 °F
Forecast: 51 / 38 °F
Wind: 2 mph from Southwest

Location: Bale-Mulhouse

Current Time: Dec 7, 2019 at 6:50:31 pm

Latest Report: Dec 7, 2019 at 6:00 pm


Visibility: 31 mi

Pressure: 30.15 "Hg

Humidity: 81%

Dew Point: 41 °F

Location of BaselLocation

Past Weather in Basel — Graph

°F

Basel Temperature Yesterday

Maximum temperature yesterday: 46 °F (at 2:00 pm)
Minimum temperature yesterday: 29 °F (at 6:00 am)
Average temperature yesterday: 36 °F

High & Low Weather Summary for the Past Weeks

 TemperatureHumidityPressure
High60 °F (Nov 27, 2:00 pm)100% (Nov 23, 4:00 am)30.45 "Hg (Nov 23, 4:00 am)
Low23 °F (Dec 4, 5:00 am)53% (Nov 27, 3:00 pm)29.41 "Hg (Nov 23, 9:00 am)
Average40 °F87%29.96 "Hg
* Reported Nov 22 5:00 pm — Dec 7 5:00 pm, Basel. Weather by CustomWeather, © 2019

Note: Actual official high and low records may vary slightly from our data, if they occured in-between our weather recording intervals... More about our weather records

Basel Weather History for the Previous 24 Hours

Scroll right to see more
 ConditionsComfort  
Time TempWeatherWind HumidityBarometerVisibility
5:00 pm
Sat, Dec 7
48 °FOvercast.3 mph78%30.16 "Hg25 mi
4:00 pm48 °FOvercast.1 mph80%30.13 "Hg25 mi
3:00 pm49 °FOvercast.8 mph78%30.12 "Hg25 mi
2:00 pm50 °FOvercast.5 mph78%30.13 "Hg25 mi
1:00 pm51 °FOvercast.8 mph76%30.13 "Hg25 mi
12:00 pm50 °FOvercast.7 mph78%30.14 "Hg25 mi
11:00 am50 °FOvercast.10 mph79%30.14 "Hg28 mi
10:00 am48 °FPartly sunny.7 mph82%30.13 "Hg25 mi
9:00 am46 °FOvercast.8 mph85%30.13 "Hg28 mi
8:00 am46 °FOvercast.8 mph86%30.12 "Hg16 mi
7:00 am46 °FLight rain. Overcast.12 mph84%30.11 "Hg9 mi
6:00 am44 °FLight rain. Overcast.6 mph90%30.09 "Hg7 mi
5:00 am45 °FOvercast.7 mph86%30.07 "Hg16 mi
4:00 am49 °FRain. Overcast.3 mph68%30.06 "Hg28 mi
3:00 am49 °FOvercast.5 mph63%30.06 "Hg37 mi
2:00 am48 °FOvercast.8 mph67%30.06 "Hg13 mi
1:00 am39 °FOvercast.6 mph92%30.07 "Hg5 mi
12:00 am39 °FOvercast.6 mph90%30.09 "Hg5 mi
11:00 pm
Fri, Dec 6
38 °FLight rain. Overcast.1 mph91%30.09 "Hg7 mi
10:00 pm39 °FOvercast.1 mph85%30.08 "Hg7 mi
9:00 pm40 °FOvercast.5 mph84%30.09 "Hg7 mi
8:00 pm39 °FOvercast.7 mph83%30.10 "Hg7 mi
7:00 pm39 °FOvercast.8 mph84%30.09 "Hg7 mi
6:00 pm37 °FOvercast.3 mph85%30.10 "Hg7 mi
Weather by CustomWeather, © 2019

See weather overview

Advertising